FENGYUN 1C DEB, 31159

Orbit data source: Space-Track

FENGYUN 1C DEB, 31159 is space debris in SSO originally from a launch on Mon, 10 May 1999 UTC launched from the Taiyaun Space Center, China (TSC). Fengyun 1C debris stems from the Chinese weather satellite Fengyun-1C, which was intentionally destroyed by a Chinese anti-satellite missile in 2007. This event dramatically increased the amount of space debris, with thousands of trackable fragments posing hazards to satellites and human spaceflight. The Fengyun 1C debris cloud has become a focal point in discussions about space sustainability and the need for international regulations to prevent the creation of new debris.

Not visible in the next 10 days
Identifier
31159, 1999-025BHM
Orbit
SSO
Country
Flag of CNCN / PRC
Related business
Manufacturer
Unknown
Mission
Spacecraft
Bus & Motor
Unknown
Mass
Unknown
Launch date (UTC)
1999-05-10 (27 years ago)
Launch vehicle
Unknown
Launch site
Taiyaun Space Center, China (TSC)
Object type
Payload
Rocket body
Debris
Shape & HBR
Unknown shape, 0.1 m
Radar Cross Section
Small (<0.1 m²)

Expand to show TLE details & history
Last TLE update: 1 week ago

TLE from 1 week ago
0 FENGYUN 1C DEB
1 31159U 99025BHM 26162.20570051  .00317585  36701-4  13615-2 0  9999
2 31159  97.8016 143.4427 0041295  82.2199 278.3754 15.83694173 23399
Epoch: 2026-06-11T04:56Z
TLE epoch observation values (Epoch: 2026-06-11T04:56:12.524Z)
Latitude
-0.00008°
Longitude
169.83769°
Altitude
319.251 km
Speed
7.719 km/s
True Right ascension
09h 33m 46s
True Declination
0° 00' 00"
Sunlit
Object was in daylight at epoch
Visualization orbit readout
Latitude
Unknown
Longitude
Unknown
Altitude
Unknown
Speed
Unknown
Apparent Right ascension
Unknown
Apparent Declination
Unknown
Sunlit
N/A
Visualization observer readout
Local Sidereal Time
07:07:41
Azimuth
Unknown
Elevation
Unknown
Doppler factor
Unknown
Orbital elements
Apogee altitude
344.551 km
Perigee altitude
289.256 km
Semi-major axis
6,695.04 km
Eccentricity
0.00413
Inclination
97.8016°
RAAN
143.4427°
Arg. of periapsis
82.2199°
True anomaly
277.90689°
Mean anomaly
278.3754°
Eccentric anomaly
278.14118°
Mean motion
3.96199 °/min
Orbital period
90.86 mins
BSTAR
0.0013615
Loading maneuver chart data...
Computing Atmospheric mass density...
Loading historical data...
Loading historical data...
Loading historical data...
Loading historical data...
Loading historical data...
Loading historical data...
Loading historical data...

Documentation

Showing up to 5 results
|